Temperature
22 21 21 22 27 28 26 26 26 25 25 24 23 23 23 23 23 21 19 18 18 18 18 18 18 18 18 18 18 18 18 18 18 18 18 18 18 18 18 18 18 18 18 18 18 18 18 18 18
21 21 22 27 29 27 26 26 26 25 24 24 23 23 23 22 21 20 19 18 18 18 18 18 18 18 18 18 18 18 18 18 18 18 18 18 18 18 18 18 18 18 18 18 18 18 18 18 18
21 22 26 30 29 27 26 26 26 25 24 24 24 23 22 21 20 19 19 18 18 18 18 18 18 18 18 18 18 18 18 18 18 18 18 18 18 18 18 18 18 18 18 18 18 18 18 18 18
22 25 28 30 27 27 27 26 26 26 25 24 24 23 21 20 20 19 18 18 19 18 18 18 18 18 18 18 18 18 18 18 18 18 18 18 18 18 18 18 18 18 18 18 18 18 18 18 18
25 29 30 29 27 27 27 27 26 26 25 24 24 23 21 19 19 19 18 19 19 19 18 18 18 18 18 18 18 18 18 18 18 18 18 18 18 18 18 18 18 18 18 18 18 18 18 18 18
29 31 30 28 27 27 27 26 26 26 25 24 24 24 21 19 19 19 19 19 19 19 18 18 18 18 18 18 18 18 18 18 18 18 18 18 18 18 18 18 18 18 18 18 18 18 18 18 18
30 31 30 29 28 27 27 26 27 26 25 24 24 24 21 20 19 19 18 19 19 19 19 18 18 18 18 18 18 18 18 18 18 18 18 18 18 18 18 18 18 18 18 18 18 18 18 18 18
29 31 30 29 28 27 27 26 26 26 25 24 24 24 22 20 19 19 19 19 19 19 19 18 18 18 18 18 18 19 19 18 18 18 18 18 18 18 18 18 18 18 18 18 18 18 18 18 17
29 31 30 30 29 28 27 27 26 25 25 24 24 23 22 20 20 20 19 19 19 19 18 19 18 18 18 18 18 18 18 18 18 18 18 18 18 18 18 18 18 18 18 18 18 18 18 18 18
31 31 30 30 30 29 28 27 26 26 26 24 23 22 21 20 20 20 20 20 19 19 19 19 18 18 18 18 18 18 18 18 18 18 18 18 18 18 18 18 18 18 18 18 18 18 18 18 17
32 30 30 30 29 29 28 27 27 27 27 25 24 22 21 21 21 21 20 20 19 19 19 19 18 18 18 18 18 18 18 18 18 18 18 18 18 18 18 18 18 18 18 17 18 18 17 17 17
31 30 30 29 29 29 28 27 27 27 26 25 23 22 22 21 21 21 20 20 19 19 19 19 18 18 18 18 18 18 18 18 18 18 18 18 18 18 18 18 18 18 18 18 17 17 17 17 17
31 30 29 29 28 28 28 28 27 26 25 24 23 22 22 22 22 21 21 20 20 19 19 19 18 18 18 18 18 18 18 18 18 18 18 18 18 18 18 18 18 18 18 18 17 17 17 17 17
31 30 29 29 29 28 28 28 27 26 25 24 23 23 23 22 21 21 21 20 20 20 19 19 18 18 19 18 18 18 18 18 18 18 18 18 18 18 18 18 18 17 17 18 17 17 17 17 17
30 31 30 30 29 29 29 28 28 26 25 25 24 24 23 22 21 21 21 20 20 20 19 19 19 19 19 18 18 18 18 18 18 18 18 18 18 18 18 18 18 17 17 17 17 17 17 17 17
31 31 31 30 30 29 30 29 28 26 26 26 25 24 23 22 22 21 21 20 20 20 19 19 19 19 19 19 19 18 18 18 18 18 18 18 18 18 18 18 17 17 17 17 17 17 17 17 17
32 32 31 30 30 30 30 30 29 27 26 26 25 25 24 23 22 22 21 21 20 20 19 19 19 19 19 19 18 18 18 18 18 18 18 18 18 18 18 18 18 17 17 17 17 17 17 17 17
32 32 31 31 31 30 30 30 29 27 27 27 26 25 24 24 23 22 21 21 20 20 20 20 19 19 19 19 19 18 18 18 18 18 18 18 18 18 17 17 18 17 17 17 17 17 17 17 17
32 32 32 31 31 31 30 30 30 28 28 27 27 26 25 24 23 22 22 21 21 20 20 20 20 19 19 19 19 18 18 18 18 18 18 18 18 17 17 17 17 17 17 17 17 17 17 17 17
32 32 32 31 31 31 31 30 30 29 28 28 27 26 26 25 24 23 22 21 21 20 20 20 20 20 19 19 19 18 18 18 18 18 18 18 17 17 17 17 17 17 17 17 17 17 17 17 17
32 32 32 31 30 31 31 30 30 30 28 28 27 27 26 25 24 23 22 22 21 21 21 20 20 20 20 19 19 18 18 18 18 18 18 18 17 17 18 17 17 17 17 17 17 17 17 17 17
31 32 32 31 31 31 31 31 31 30 30 29 28 27 26 26 25 24 23 22 21 21 21 21 21 20 20 19 19 18 18 18 18 18 18 18 18 17 17 17 17 17 17 17 17 17 17 17 17
32 32 31 31 31 32 31 31 32 31 30 30 29 28 27 26 25 24 23 22 22 21 21 21 21 21 20 20 19 19 18 18 18 18 18 18 17 17 17 17 17 17 17 17 17 17 17 17 17
31 31 31 31 32 31 31 31 31 32 31 31 30 28 27 26 25 24 23 23 22 21 21 21 21 21 20 20 19 19 19 18 18 18 18 18 18 17 17 17 17 17 17 17 17 17 17 17 17
31 31 30 30 30 31 31 31 31 32 31 31 30 29 28 27 26 25 24 23 22 22 21 21 21 21 21 20 20 19 19 18 18 18 18 18 18 17 17 17 17 17 17 17 17 17 17 17 17
31 32 30 30 30 31 30 31 32 31 31 30 29 29 28 27 26 25 24 23 22 22 21 21 21 21 21 20 20 20 19 18 18 18 18 17 17 17 17 17 17 17 17 17 17 17 17 17 17
31 32 33 32 31 31 31 31 31 31 30 30 30 29 28 27 26 25 24 24 23 22 22 21 21 21 21 20 20 19 19 19 18 18 18 17 17 17 17 17 17 17 17 17 17 17 17 17 17
32 32 31 31 30 30 31 31 31 30 30 30 30 29 28 27 26 25 24 23 23 22 22 21 21 21 21 20 20 19 19 19 19 18 18 18 18 18 18 17 17 17 17 17 17 17 17 17 17
30 31 31 31 31 30 30 31 32 31 31 30 30 29 28 27 26 25 24 23 23 22 22 21 21 21 20 20 20 19 19 19 19 18 18 18 18 18 18 18 17 17 17 17 17 17 17 16 16
31 31 31 30 29 30 31 31 31 31 30 30 29 28 27 26 26 25 24 23 23 22 22 21 21 21 20 20 20 20 19 19 19 18 18 18 18 18 18 17 17 17 17 17 17 16 16 16 16
Wind_Speed
12 10 6 4 2 8 13 10 10 9 7 9 9 8 9 10 8 7 5 5 5 5 6 8 8 8 9 10 10 10 10 10 10 10 11 11 12 13 13 13 13 13 14 14 14 15 14 15 15
8 6 5 2 5 11 12 11 12 11 9 8 9 10 11 10 8 7 5 5 5 5 7 8 9 8 9 9 10 10 10 10 10 10 11 12 13 13 13 13 13 13 14 14 14 15 14 14 15
6 6 2 4 11 12 11 11 12 11 8 6 7 8 7 7 6 5 6 5 6 6 7 9 8 8 9 9 10 9 9 10 10 11 12 12 12 12 13 13 13 12 13 13 13 13 14 14 14
4 3 2 9 16 14 12 10 10 9 9 8 7 9 8 7 5 7 7 6 6 6 8 10 8 8 9 9 9 9 9 9 10 11 11 11 11 12 12 12 12 12 12 12 13 13 13 13 13
3 2 9 14 15 13 11 9 7 9 8 8 9 11 9 8 9 9 8 6 7 7 8 9 9 8 9 9 9 9 9 10 10 10 10 10 11 11 12 12 11 11 11 11 11 11 12 12 13
1 3 9 14 14 11 10 9 9 11 11 10 10 11 8 7 8 7 7 6 7 7 8 9 10 8 9 9 10 10 10 9 10 10 10 10 10 11 11 11 10 10 9 10 11 11 11 12 12
4 8 12 14 12 11 9 7 9 10 10 9 7 9 7 7 7 7 6 6 6 6 7 7 9 9 9 9 9 9 9 9 9 9 9 9 10 10 10 10 10 9 9 10 10 11 11 11 11
2 6 12 12 11 11 9 8 9 10 10 8 4 7 7 8 8 7 7 6 6 6 6 7 8 7 8 9 9 8 9 8 8 8 8 8 9 10 10 10 9 9 9 10 10 10 10 10 10
1 7 11 11 10 10 10 10 9 8 10 8 8 10 11 10 9 8 7 6 6 5 5 6 7 6 7 8 8 7 7 7 6 7 7 4 6 8 9 10 10 9 9 9 10 10 10 10 10
4 10 13 10 11 11 10 9 9 8 10 10 11 11 11 9 8 7 7 7 6 6 6 5 5 5 6 6 6 5 6 6 5 5 5 5 6 6 7 10 8 8 8 9 9 9 9 7 8
9 12 11 10 10 11 10 9 7 9 9 9 10 11 10 9 8 6 6 6 7 5 5 6 5 4 4 5 4 4 4 5 5 6 5 5 4 5 6 5 6 6 7 6 8 6 5 5 5
10 10 9 10 9 9 10 9 8 8 9 9 10 11 9 8 7 6 6 6 6 5 6 5 5 4 3 4 4 3 4 4 4 5 5 5 4 4 5 4 5 4 5 5 4 4 5 5 5
10 10 10 10 9 10 10 9 9 9 9 10 10 10 9 8 7 6 6 6 5 5 5 5 4 4 3 3 2 4 4 4 5 4 5 4 4 4 4 4 4 4 4 4 4 4 5 5 5
10 11 11 10 10 8 9 8 7 9 9 10 9 9 8 7 6 6 5 5 5 5 5 4 3 4 3 3 3 3 3 3 4 4 5 4 4 4 3 4 3 4 4 4 4 5 4 4 4
11 11 10 8 7 7 7 8 7 9 9 10 9 8 7 6 6 5 5 4 4 4 4 4 4 4 3 2 2 2 3 3 3 4 4 4 3 4 3 3 3 4 4 4 4 5 5 4 4
8 7 7 7 6 5 5 7 9 10 9 9 8 8 7 6 5 5 5 5 4 4 4 3 3 4 4 2 1 1 2 3 3 3 3 4 3 3 2 2 3 3 3 3 4 3 4 4 4
7 6 7 8 6 5 4 6 9 10 9 8 8 8 7 6 6 5 6 6 6 5 5 4 3 4 3 3 2 2 2 2 2 2 2 3 3 2 2 2 3 2 2 3 3 4 3 4 3
7 6 6 6 7 6 4 5 8 10 9 8 8 8 7 7 7 6 6 7 6 6 6 5 5 4 4 3 2 1 1 1 1 2 3 2 2 2 1 2 2 2 3 3 3 3 3 3 3
5 4 5 5 5 6 4 4 7 9 9 9 8 8 8 7 7 7 7 7 7 7 6 6 5 5 4 3 2 2 2 1 2 2 3 2 2 2 1 1 2 1 2 2 2 3 4 3 3
6 5 5 5 5 5 4 4 5 8 10 9 9 8 8 8 8 8 7 7 8 8 7 7 6 5 5 3 2 1 1 1 1 2 2 1 1 1 1 1 0 1 2 2 2 2 2 2 2
7 5 4 5 5 6 5 5 6 8 9 9 9 9 8 8 9 9 8 8 8 8 8 7 6 5 5 4 3 3 2 2 2 2 1 1 1 1 1 0 0 1 1 2 2 2 2 1 1
7 4 5 6 7 4 5 2 5 7 8 10 10 10 9 9 9 9 9 9 9 9 8 8 7 6 5 5 4 4 2 1 1 0 1 1 1 1 1 0 0 1 1 1 2 2 2 2 1
4 4 5 7 7 5 5 5 3 7 6 8 10 11 11 10 10 9 9 9 9 8 8 8 8 7 6 5 5 4 3 2 1 1 2 0 1 1 1 1 0 1 1 1 1 1 2 2 2
6 6 6 7 8 7 5 6 2 4 4 6 8 10 11 11 11 10 9 9 9 8 8 9 9 7 7 6 5 4 3 2 1 1 1 1 1 0 1 1 1 1 1 1 2 3 3 2 2
10 9 7 7 7 5 4 6 2 2 3 4 7 9 10 11 11 11 10 10 10 10 10 9 9 8 7 7 6 5 4 4 3 2 1 1 0 0 1 1 1 1 1 1 2 3 3 3 4
13 12 8 6 6 5 6 5 2 2 2 4 6 8 9 11 11 11 11 11 10 10 10 10 9 8 8 7 6 5 5 4 3 2 1 1 1 1 1 1 1 1 1 1 1 2 3 3 3
11 12 10 8 7 6 5 5 4 4 4 5 7 8 9 10 10 10 10 11 10 10 10 10 10 9 8 7 7 6 5 4 3 3 3 2 1 1 1 0 0 0 0 1 1 1 2 2 3
8 9 8 9 8 8 7 7 5 6 6 7 7 7 8 9 9 9 9 9 9 10 10 9 9 9 8 8 7 6 6 5 5 4 3 2 1 1 1 1 1 1 1 1 1 1 1 2 2
9 10 9 8 8 9 7 4 2 4 4 6 7 7 7 8 9 9 8 9 9 9 10 10 9 9 8 8 7 6 6 6 5 4 4 3 3 2 2 2 1 1 1 1 1 1 1 2 1
10 10 11 10 8 9 9 4 4 3 3 4 5 6 7 8 8 8 8 9 9 9 9 9 9 9 8 8 7 7 6 6 5 5 4 4 4 3 3 2 2 2 2 2 2 2 2 2 2
Wind_Direction
172 180 204 229 183 78 67 66 74 77 67 59 61 65 65 50 47 77 87 80 80 78 85 87 73 68 67 70 73 74 77 81 87 92 94 95 96 97 96 96 95 96 104 110 114 116 117 122 127
170 188 224 230 76 78 67 69 73 72 85 88 75 75 73 64 62 89 96 85 89 85 86 76 71 67 66 68 71 72 77 81 86 90 92 96 96 96 96 95 93 94 101 105 110 114 113 118 125
181 224 263 69 62 68 75 76 84 85 83 81 80 66 60 68 74 84 93 102 98 89 85 81 67 67 67 66 68 70 75 81 88 92 92 94 96 97 96 95 93 92 96 101 104 109 112 114 121
213 209 113 79 73 68 80 88 96 96 83 78 89 82 74 58 67 92 103 103 100 95 90 87 73 67 69 69 67 66 72 81 90 93 92 94 96 97 98 98 94 92 94 97 99 104 111 115 120
237 108 94 82 77 77 81 84 86 86 82 85 88 91 83 71 85 97 103 103 99 96 92 91 80 72 69 69 67 68 74 82 93 95 95 95 96 97 98 97 94 94 96 99 99 101 108 113 118
192 101 86 84 85 86 82 82 88 89 93 93 95 96 85 93 95 98 98 100 97 97 98 100 94 81 74 69 66 67 71 81 92 94 95 96 96 95 96 97 95 95 99 103 102 100 107 112 116
71 80 85 89 93 88 84 84 85 93 93 85 91 95 104 106 104 103 103 102 95 96 96 97 101 101 94 77 65 65 71 81 89 93 94 98 100 99 97 99 96 96 101 106 106 105 110 112 115
56 96 91 87 89 88 97 95 88 89 90 95 86 99 117 124 125 119 112 107 101 96 93 92 83 85 94 95 82 71 74 81 89 94 96 108 118 115 113 110 98 98 103 105 110 113 114 116 117
162 93 84 81 85 100 111 106 96 94 101 88 76 86 110 128 132 126 120 116 107 99 96 96 98 94 89 90 92 93 96 96 111 111 111 119 100 102 112 93 93 94 103 109 111 115 120 126 129
82 80 77 76 86 108 111 105 110 115 104 99 97 98 115 129 131 124 123 121 113 109 110 101 94 95 92 88 92 84 88 87 83 79 86 88 88 86 92 106 104 104 108 117 114 124 142 152 133
76 83 89 89 92 106 110 105 107 113 105 109 118 124 129 129 126 123 117 111 111 114 109 103 97 80 79 88 86 78 81 84 88 79 80 84 87 92 91 94 108 110 116 107 120 134 117 113 107
92 85 92 98 104 107 105 107 104 95 94 110 122 130 132 131 128 128 124 121 118 114 108 104 105 103 78 68 82 90 87 86 80 80 68 78 80 81 86 84 88 95 94 95 100 103 104 103 105
100 99 99 106 110 105 109 104 103 102 107 118 127 135 136 133 128 126 128 126 123 124 120 115 113 105 97 81 70 80 78 79 88 82 76 70 84 82 87 83 76 83 91 106 106 107 107 108 109
109 110 113 117 115 118 113 111 114 117 128 132 139 142 139 135 135 136 138 135 138 141 133 126 127 121 113 106 95 84 84 90 85 86 84 78 85 85 86 95 85 82 80 82 99 104 109 111 105
127 123 121 124 129 134 134 116 117 133 144 144 148 147 145 147 152 156 155 157 151 146 139 143 146 137 132 118 106 101 94 90 87 91 92 87 87 92 99 91 96 84 89 102 107 106 113 118 114
152 150 133 136 147 164 200 113 131 151 158 156 157 157 161 162 169 173 171 173 170 161 155 163 160 142 141 129 91 74 59 74 82 90 97 98 86 90 91 90 89 95 102 107 110 115 113 110 110
176 156 131 142 167 173 192 126 143 165 170 167 169 169 173 172 180 183 187 181 177 176 172 172 172 160 155 149 149 125 91 69 75 94 95 99 100 98 98 86 86 110 104 102 108 105 105 110 110
160 152 146 144 164 187 187 143 152 175 186 180 178 178 182 184 183 184 188 183 178 178 178 179 180 179 178 177 168 159 129 114 90 93 83 85 97 91 73 112 102 102 102 99 95 104 110 114 120
166 167 149 134 154 190 192 180 169 178 191 193 191 190 192 194 181 180 185 185 180 181 183 187 189 181 191 192 194 164 145 126 109 112 95 94 90 94 88 76 108 116 109 106 127 136 137 136 130
188 186 167 146 157 197 191 199 185 185 196 201 199 198 197 194 188 185 187 189 188 186 188 189 190 189 195 183 183 169 120 122 115 87 89 82 81 75 130 113 162 135 132 143 147 156 159 159 176
202 205 193 174 173 201 211 194 184 184 198 201 203 200 195 193 190 187 189 192 191 188 189 189 186 186 192 191 186 169 167 189 156 148 138 83 59 60 38 98 252 181 186 158 175 182 186 188 191
204 212 215 192 200 193 226 212 164 180 193 200 204 202 199 192 188 187 186 189 191 189 185 184 182 183 185 191 197 199 202 186 134 158 113 104 68 31 15 16 241 251 223 182 204 176 205 213 212
213 189 209 212 224 231 216 249 154 166 187 194 199 201 200 193 189 188 188 187 189 185 181 178 176 178 182 192 195 207 213 207 166 142 121 141 97 29 351 343 295 247 239 211 224 204 228 227 240
168 173 192 220 235 232 229 250 199 169 196 191 188 192 195 192 189 188 187 184 186 183 182 177 171 175 180 189 195 201 204 207 201 191 180 208 147 88 30 359 324 283 279 223 218 223 214 234 243
198 207 208 211 217 219 203 240 230 130 177 196 186 183 184 186 187 187 187 185 186 184 183 180 172 174 178 182 187 188 194 198 200 223 196 251 281 92 53 2 331 316 301 243 226 218 230 227 231
211 225 237 241 230 208 194 229 199 152 176 189 185 181 181 183 184 187 186 185 185 182 181 180 176 177 177 179 181 186 197 206 198 196 240 227 289 8 41 25 345 323 293 252 216 222 217 220 227
209 227 242 248 252 251 214 207 202 180 179 179 176 176 181 181 180 183 184 184 183 180 180 181 177 177 179 180 179 184 192 206 204 192 211 221 215 198 140 212 266 288 244 250 228 211 212 207 223
237 222 223 236 243 243 230 226 221 192 196 188 179 175 172 174 174 174 175 176 178 179 176 177 177 178 181 183 188 184 188 194 200 203 196 208 212 217 219 240 235 232 224 221 237 217 194 205 218
202 213 229 235 249 253 247 233 177 198 201 195 187 176 173 176 172 169 169 170 171 174 173 174 177 181 183 187 186 190 188 187 193 196 196 194 202 203 213 221 233 226 217 206 211 230 196 204 197
224 224 221 229 233 251 262 247 117 159 186 192 190 178 173 173 168 165 166 166 169 173 176 179 181 184 186 186 186 190 191 187 188 193 196 196 199 203 204 209 217 219 210 202 206 217 209 199 190
Height
1489 1489 1490 1491 1485 1486 1496 1497 1495 1499 1502 1506 1507 1506 1507 1509 1512 1521 1524 1521 1522 1521 1521 1520 1519 1518 1517 1516 1516 1515 1515 1514 1514 1514 1514 1514 1514 1514 1515 1515 1515 1515 1516 1517 1518 1520 1521 1523 1525
1491 1491 1492 1487 1482 1495 1503 1498 1500 1503 1507 1508 1509 1509 1510 1515 1518 1522 1523 1523 1523 1523 1523 1522 1520 1520 1519 1518 1518 1517 1516 1516 1516 1515 1515 1516 1517 1517 1518 1518 1518 1518 1519 1520 1522 1523 1524 1526 1528
1492 1492 1491 1483 1488 1497 1504 1502 1504 1507 1509 1509 1511 1512 1515 1519 1522 1524 1525 1525 1525 1525 1525 1523 1522 1522 1521 1520 1519 1519 1518 1518 1518 1518 1518 1519 1520 1520 1520 1521 1521 1521 1522 1523 1525 1526 1527 1529 1531
1494 1494 1489 1487 1497 1499 1501 1503 1506 1508 1510 1511 1511 1515 1520 1524 1525 1526 1526 1527 1527 1527 1527 1525 1524 1523 1523 1522 1521 1520 1520 1520 1520 1520 1521 1521 1522 1523 1523 1524 1524 1524 1525 1526 1528 1529 1530 1532 1533
1495 1490 1487 1494 1500 1502 1503 1506 1507 1507 1511 1513 1514 1518 1523 1527 1527 1527 1528 1528 1529 1529 1529 1527 1526 1525 1525 1524 1523 1522 1522 1522 1522 1523 1523 1524 1524 1525 1525 1526 1527 1527 1528 1529 1530 1531 1533 1534 1536
1493 1486 1490 1500 1504 1504 1506 1508 1509 1510 1514 1516 1517 1519 1526 1529 1529 1529 1529 1530 1530 1530 1530 1529 1528 1527 1527 1526 1525 1525 1524 1524 1524 1525 1525 1526 1527 1527 1528 1529 1530 1530 1531 1532 1533 1533 1535 1537 1538
1492 1487 1493 1498 1504 1505 1509 1511 1510 1512 1515 1518 1520 1521 1527 1530 1531 1531 1531 1531 1532 1532 1532 1532 1532 1530 1529 1528 1528 1527 1526 1527 1527 1527 1528 1528 1529 1530 1531 1531 1532 1533 1534 1535 1535 1536 1537 1539 1540
1494 1489 1493 1497 1502 1508 1511 1513 1514 1515 1519 1522 1522 1523 1528 1531 1532 1532 1532 1533 1533 1534 1534 1534 1533 1533 1533 1532 1530 1530 1529 1529 1530 1530 1531 1531 1532 1533 1534 1534 1535 1535 1536 1537 1538 1539 1540 1541 1542
1495 1491 1497 1499 1502 1508 1511 1513 1517 1519 1521 1523 1524 1526 1529 1532 1533 1534 1534 1535 1535 1535 1535 1536 1536 1536 1536 1535 1533 1533 1532 1532 1533 1533 1533 1534 1536 1537 1537 1537 1537 1538 1538 1539 1540 1541 1542 1543 1544
1493 1494 1500 1500 1502 1506 1511 1514 1517 1518 1521 1524 1527 1530 1532 1533 1534 1535 1536 1536 1537 1537 1537 1537 1537 1538 1538 1537 1536 1536 1536 1535 1536 1536 1537 1537 1538 1539 1540 1539 1540 1540 1540 1541 1542 1543 1544 1545 1547
1495 1499 1502 1504 1507 1509 1512 1515 1517 1517 1520 1525 1528 1531 1533 1535 1536 1536 1537 1538 1538 1538 1539 1539 1538 1539 1540 1539 1539 1538 1538 1538 1538 1538 1538 1539 1540 1541 1542 1542 1542 1542 1543 1544 1545 1546 1547 1548 1549
1500 1503 1505 1507 1510 1511 1513 1516 1519 1520 1524 1527 1530 1532 1534 1535 1537 1537 1538 1539 1539 1540 1540 1540 1540 1540 1540 1541 1541 1540 1541 1540 1541 1540 1541 1542 1542 1543 1543 1543 1544 1544 1545 1545 1546 1547 1547 1548 1549
1502 1505 1508 1511 1513 1514 1516 1518 1521 1524 1527 1529 1532 1534 1535 1536 1537 1538 1539 1540 1540 1541 1541 1541 1541 1542 1542 1542 1542 1542 1542 1543 1543 1542 1542 1543 1544 1544 1544 1544 1545 1546 1547 1547 1547 1548 1548 1549 1550
1504 1507 1510 1512 1514 1516 1517 1520 1522 1526 1529 1531 1533 1534 1536 1537 1538 1539 1540 1541 1541 1542 1543 1543 1543 1543 1543 1543 1543 1544 1544 1544 1544 1544 1544 1544 1545 1545 1545 1546 1546 1547 1548 1548 1548 1548 1549 1550 1551
1506 1507 1510 1512 1514 1516 1517 1519 1522 1527 1529 1531 1533 1535 1536 1538 1539 1539 1540 1541 1542 1543 1543 1543 1544 1544 1544 1545 1545 1546 1546 1546 1546 1546 1545 1545 1546 1546 1546 1547 1548 1548 1548 1548 1549 1549 1550 1551 1552
1504 1504 1509 1511 1513 1515 1515 1520 1522 1526 1528 1530 1532 1534 1536 1538 1539 1540 1540 1541 1542 1543 1543 1544 1545 1545 1545 1545 1545 1547 1547 1547 1547 1547 1547 1546 1547 1547 1547 1548 1549 1549 1550 1550 1550 1550 1551 1551 1552
1501 1505 1507 1511 1511 1512 1511 1516 1521 1525 1527 1529 1531 1533 1535 1537 1538 1539 1540 1541 1542 1543 1543 1544 1545 1546 1546 1546 1546 1547 1547 1547 1548 1548 1548 1548 1548 1548 1548 1549 1549 1549 1550 1551 1551 1551 1552 1552 1553
1503 1503 1505 1508 1508 1510 1510 1513 1518 1523 1525 1526 1529 1531 1533 1535 1537 1538 1539 1540 1541 1542 1543 1544 1545 1545 1546 1547 1547 1547 1548 1548 1548 1548 1548 1548 1548 1548 1549 1549 1549 1550 1550 1550 1551 1551 1552 1553 1553
1496 1500 1504 1505 1506 1509 1510 1512 1514 1519 1522 1524 1527 1529 1531 1533 1536 1537 1538 1540 1541 1541 1542 1543 1544 1545 1545 1547 1548 1548 1549 1549 1549 1549 1548 1548 1549 1549 1549 1550 1549 1550 1550 1550 1551 1552 1552 1553 1553
1498 1502 1504 1505 1507 1508 1509 1510 1511 1515 1519 1521 1524 1526 1529 1531 1533 1535 1537 1538 1539 1540 1541 1542 1543 1544 1545 1546 1547 1547 1548 1549 1549 1549 1548 1549 1549 1549 1549 1549 1549 1550 1550 1550 1551 1551 1552 1553 1553
1499 1501 1503 1506 1507 1506 1508 1511 1509 1512 1516 1519 1522 1524 1526 1528 1531 1533 1535 1536 1538 1539 1540 1542 1543 1544 1544 1545 1547 1548 1548 1549 1549 1549 1549 1549 1549 1549 1549 1549 1549 1549 1550 1550 1550 1551 1551 1552 1553
1503 1498 1500 1504 1508 1507 1507 1514 1507 1507 1511 1515 1518 1521 1523 1526 1528 1531 1533 1534 1536 1538 1539 1540 1541 1542 1543 1545 1546 1547 1548 1549 1549 1549 1549 1549 1548 1549 1548 1548 1548 1549 1550 1549 1550 1550 1551 1551 1552
1498 1498 1500 1501 1503 1505 1505 1509 1505 1503 1507 1509 1513 1517 1520 1523 1526 1528 1531 1533 1535 1537 1538 1539 1540 1541 1542 1544 1545 1546 1547 1548 1549 1548 1548 1548 1548 1548 1548 1547 1547 1548 1548 1548 1548 1549 1549 1550 1551
1498 1501 1502 1501 1500 1514 1507 1510 1509 1499 1503 1504 1508 1513 1516 1520 1523 1526 1529 1531 1533 1535 1537 1538 1538 1540 1541 1542 1543 1544 1546 1546 1547 1547 1548 1548 1548 1547 1547 1547 1546 1546 1547 1547 1547 1547 1548 1548 1549
1499 1504 1513 1517 1516 1514 1503 1507 1505 1496 1499 1502 1505 1509 1513 1517 1520 1523 1526 1528 1530 1532 1534 1536 1537 1538 1539 1541 1542 1543 1544 1545 1545 1546 1547 1547 1547 1547 1546 1546 1545 1545 1545 1545 1546 1546 1546 1547 1547
1496 1496 1511 1521 1518 1508 1505 1507 1498 1495 1499 1502 1504 1507 1511 1514 1518 1521 1523 1526 1528 1530 1532 1534 1535 1536 1538 1539 1540 1542 1542 1544 1545 1545 1546 1546 1546 1546 1545 1544 1544 1544 1544 1544 1544 1545 1545 1545 1545
1495 1494 1489 1499 1503 1508 1502 1500 1496 1496 1498 1500 1503 1506 1509 1512 1515 1518 1521 1523 1526 1528 1530 1532 1533 1534 1536 1538 1539 1540 1541 1542 1544 1544 1544 1545 1544 1544 1544 1544 1544 1543 1543 1543 1543 1544 1544 1544 1544
1489 1488 1495 1500 1516 1518 1508 1503 1499 1497 1497 1498 1501 1504 1507 1511 1514 1517 1519 1521 1524 1526 1528 1530 1531 1533 1535 1536 1538 1539 1540 1541 1542 1542 1543 1543 1543 1543 1543 1543 1543 1543 1543 1543 1543 1543 1543 1542 1542
1493 1493 1493 1494 1498 1509 1514 1504 1486 1491 1494 1496 1499 1503 1506 1509 1512 1515 1517 1520 1522 1524 1527 1528 1530 1531 1533 1534 1536 1537 1538 1539 1540 1541 1541 1541 1541 1541 1542 1542 1542 1541 1541 1541 1542 1542 1542 1542 1541
1487 1488 1492 1502 1506 1502 1503 1501 1485 1490 1493 1496 1498 1502 1505 1508 1511 1513 1516 1518 1520 1522 1524 1526 1528 1530 1531 1533 1534 1536 1537 1538 1539 1539 1540 1540 1540 1540 1540 1541 1540 1541 1540 1540 1540 1540 1541 1540 1540